Flag for U.S.A. Weather past 2 weeks in Annapolis, Maryland, U.S.A.

Now
65 °F

Clear.


Feels Like: 65 °F
Forecast: 53 / 63 °F
Wind: No wind

Location: Annapolis - United States Naval Academy

Current Time: Apr 18, 2015 at 9:23:11 PM

Latest Report: Apr 18, 2015 at 8:54 PM


Visibility: 10 mi

Pressure: 29.98 "Hg

Humidity: 61%

Dew point: 51 °F

Location of AnnapolisLocation

Historic Weather in Annapolis — Graph

°F

Annapolis temperature yesterday

Maximum temperature yesterday: 69 °F (at 6:54 PM)
Minimum temperature yesterday: 54 °F (at 3:54 AM)
Average temperature yesterday: 60 °F

Past Weeks' High & Low Weather Summary

 TemperatureHumidityPressure
High72 °F (Apr 18, 4:54 PM)97% (Apr 10, 6:04 AM)30.44 "Hg (Apr 10, 6:04 AM)
Low40 °F (Apr 12, 5:54 AM)18% (Apr 5, 2:54 PM)29.60 "Hg (Apr 4, 2:54 AM)
Average54 °F69%30.15 "Hg
* Reported Apr 3 7:54 PM — Apr 18 7:54 PM, Annapolis, Weather by CustomWeather, © 2015

Note: Actual official high and low records may vary slightly from our data, if they occured in-between our weather recording intervals... More about our weather records

Advertising

Annapolis weather history for previous 24 hours

 ConditionsComfort  
Time TempWeatherWind HumidityBarometerVisibility
7:54 PM
Sat, Apr 18
66 °FSunny.No wind56%29.96 "Hg10 mi
6:54 PM71 °FSunny.6 mph41%29.96 "Hg10 mi
5:54 PM70 °FSunny.8 mph46%29.97 "Hg10 mi
4:54 PM72 °FSunny.8 mph43%29.96 "Hg10 mi
3:54 PM69 °FSunny.8 mph53%29.96 "Hg10 mi
2:54 PM70 °FSunny.9 mph46%29.98 "Hg10 mi
1:54 PM68 °FSunny.10 mph59%30.00 "Hg10 mi
12:54 PM69 °FSunny.8 mph55%30.02 "Hg10 mi
11:54 AM69 °FSunny.5 mph51%30.03 "Hg10 mi
10:54 AM67 °FSunny.9 mph53%30.04 "Hg10 mi
9:54 AM67 °FSunny.8 mph47%30.03 "Hg10 mi
8:54 AM65 °FSunny.6 mph59%30.03 "Hg10 mi
7:54 AM61 °FSunny.5 mph72%30.03 "Hg9 mi
6:54 AM56 °FClear.No wind90%30.01 "Hg7 mi
5:54 AM56 °FClear.5 mph93%29.98 "Hg7 mi
4:54 AM57 °FFog.5 mph93%29.97 "Hg6 mi
3:54 AM56 °FFog.3 mph97%29.97 "Hg6 mi
2:54 AM57 °FFog.No wind96%29.98 "Hg5 mi
1:54 AM58 °FFog.No wind93%29.98 "Hg5 mi
12:54 AM58 °FFog.No wind93%29.98 "Hg5 mi
11:54 PM
Fri, Apr 17
58 °FClear.3 mph93%29.98 "Hg7 mi
10:54 PM60 °FPassing clouds.3 mph86%29.98 "Hg10 mi
9:54 PM60 °FMostly cloudy.7 mph90%29.98 "Hg10 mi
Weather by CustomWeather, © 2015

See weather overviewHow to use our weather pages